Temperature
9 8 8 8 9 9 9 9 9 9 10 10 9 10 10 11 11 11 11 12 12 13 13 14 14 14 14 14 14 14 15 15 14 14 14 14 14 14 14 14 13 13 13 13
8 8 9 9 9 9 9 9 8 9 10 10 9 9 10 10 10 11 11 12 12 13 13 13 14 14 14 14 14 14 14 14 14 14 14 13 13 13 13 13 13 13 13 13
8 9 10 9 9 9 9 8 8 9 9 9 8 9 10 10 10 11 11 12 12 12 12 13 13 13 13 14 14 14 14 14 14 13 13 13 12 12 12 13 13 13 13 12
8 9 9 9 9 9 9 9 9 9 8 8 8 8 9 9 9 9 10 11 11 12 12 12 13 13 13 13 13 13 13 13 13 13 13 12 12 12 12 13 13 13 13 12
8 9 9 9 9 9 9 9 9 9 8 7 7 7 8 8 9 10 9 10 11 11 12 12 12 13 13 13 13 13 13 13 13 13 12 12 12 12 12 12 12 12 12 12
8 9 9 9 9 9 9 8 8 7 7 7 7 7 8 8 9 9 9 10 11 11 11 12 12 12 12 12 12 12 13 12 12 12 12 12 12 12 12 12 12 12 12 12
8 8 9 9 9 9 9 8 7 7 7 7 7 7 8 9 9 9 8 9 10 10 11 11 11 12 12 12 12 12 12 12 12 12 12 12 12 11 11 11 11 12 12 12
7 8 8 9 9 8 8 8 7 8 7 7 7 7 8 8 8 9 9 9 9 10 10 11 11 11 11 11 11 11 11 11 11 11 11 11 11 11 11 11 11 11 11 11
7 7 8 8 9 8 7 7 7 6 6 6 6 6 7 8 8 8 8 8 9 10 10 10 10 11 11 11 11 10 11 11 11 11 10 10 11 10 11 10 10 10 11 11
7 7 7 8 8 8 8 7 6 6 6 6 6 6 7 8 8 8 7 8 9 9 10 10 10 10 10 10 10 10 10 10 10 10 10 10 10 10 10 10 10 10 10 10
7 6 7 7 7 7 7 7 6 5 5 5 6 7 8 8 8 7 7 8 9 9 9 9 9 9 9 10 9 9 9 9 9 9 9 9 9 9 10 10 10 10 10 10
6 5 5 6 7 7 7 6 6 5 5 4 4 7 8 7 7 7 7 8 9 9 9 9 9 9 9 9 9 9 9 9 8 9 9 9 9 9 9 9 9 9 9 9
6 5 5 6 6 6 6 6 5 5 4 4 5 7 8 6 7 7 8 8 8 8 8 8 8 8 8 8 8 8 8 8 8 8 8 8 8 8 8 8 8 8 8 8
6 5 5 6 6 5 5 5 5 4 4 4 5 6 7 7 7 7 7 8 8 8 8 8 8 8 7 7 7 7 7 7 7 7 7 7 7 7 7 7 8 8 8 8
6 5 4 5 5 5 5 5 4 4 4 5 6 6 7 7 7 7 7 7 7 7 7 7 7 7 7 7 7 7 7 7 7 6 6 6 6 6 7 7 7 7 7 7
4 4 4 4 4 4 4 5 5 5 5 5 5 6 7 6 6 6 6 6 6 6 7 7 6 6 6 6 6 6 6 6 6 6 6 6 6 6 6 6 6 6 6 6
3 3 3 3 4 4 4 4 5 5 4 5 5 6 6 5 5 5 6 6 6 6 6 6 6 6 6 5 5 5 5 5 5 5 5 5 5 5 5 5 5 5 5 6
3 3 3 3 3 3 5 5 5 5 5 5 5 5 5 5 5 6 6 6 6 5 5 5 5 5 5 5 5 5 5 5 4 4 4 4 4 4 5 5 5 5 5 5
4 4 3 3 3 3 4 5 4 4 4 5 5 5 5 5 4 5 6 6 5 5 5 5 5 4 4 4 4 4 4 4 4 4 3 3 3 3 4 4 4 4 4 4
3 4 4 3 3 3 5 5 5 5 4 4 4 4 4 4 3 4 6 5 5 5 5 4 4 4 4 3 3 3 3 3 3 3 3 3 3 3 3 3 3 3 3 3
3 3 3 3 3 4 4 5 5 4 5 5 5 4 4 3 4 5 5 4 4 4 4 4 3 3 3 3 2 2 2 2 2 2 2 2 2 2 2 2 2 2 2 2
3 2 2 3 3 4 4 3 4 5 5 6 5 5 5 5 4 4 4 4 4 3 3 3 3 2 2 2 2 1 2 2 1 1 1 1 2 2 2 2 2 2 2 2
2 3 3 3 4 4 5 5 6 6 5 5 5 5 4 4 4 3 3 3 3 3 2 2 2 1 1 1 1 1 1 1 1 1 1 1 1 1 1 1 1 1 1 1
1 2 2 2 2 3 4 5 6 6 5 5 5 4 4 3 3 3 2 2 2 2 2 1 1 1 1 0 0 0 0 0 -0 -0 0 0 0 0 0 0 0 0 0 0
2 1 1 1 2 2 4 5 5 5 5 4 4 4 3 3 2 2 2 2 1 1 1 1 0 -0 -0 -0 -0 -1 -1 -1 -1 -1 -1 -1 -1 -1 -1 -1 -1 -1 -1 -0
1 1 1 3 3 2 3 5 5 4 4 3 3 3 3 2 2 1 1 1 0 0 -0 -0 -1 -1 -1 -1 -1 -1 -1 -2 -2 -2 -2 -2 -2 -2 -2 -2 -1 -1 -1 -1
Wind_Speed
2 2 6 9 9 7 4 6 9 10 8 7 12 16 18 13 9 8 6 5 4 5 5 4 4 4 3 3 3 4 5 5 4 5 6 6 7 7 7 9 10 11 12 12
2 6 9 5 5 5 6 8 9 9 6 6 10 14 14 10 7 6 5 5 5 5 5 4 3 2 3 3 4 5 5 5 5 6 6 6 5 5 7 7 9 11 11 12
7 5 3 5 5 6 7 8 7 8 8 4 6 9 7 5 4 4 4 4 4 5 6 5 4 3 3 4 5 5 6 6 6 6 4 3 2 3 4 7 8 10 11 12
6 5 4 5 6 6 7 7 8 7 5 5 3 6 8 6 6 5 4 4 5 5 5 4 4 4 4 5 5 5 5 5 6 6 5 6 6 7 8 8 8 8 10 11
5 3 4 6 6 7 6 3 5 5 4 5 3 4 9 5 5 5 4 4 5 5 4 5 5 4 5 4 4 5 5 5 5 5 7 7 8 8 6 5 7 8 9 11
5 3 4 5 3 4 2 2 2 2 1 4 5 5 7 4 5 4 4 4 5 4 4 5 5 4 4 4 4 5 5 6 5 5 7 8 9 9 7 7 7 7 7 8
4 3 3 3 1 1 2 3 3 4 2 6 2 4 8 7 4 3 5 5 4 4 4 4 5 5 5 6 5 5 5 6 5 5 7 8 9 9 9 9 8 8 7 8
3 5 4 4 5 4 4 5 4 4 4 5 3 6 7 6 3 3 3 4 4 4 4 5 5 5 6 6 6 6 6 6 6 5 6 7 7 7 7 7 7 7 7 8
6 6 2 2 3 6 4 4 4 3 2 4 6 7 9 4 3 3 4 5 5 6 6 7 7 6 6 7 7 6 6 6 6 6 6 6 6 6 7 7 7 7 7 7
6 4 3 2 1 1 4 5 4 3 3 5 6 6 5 5 4 4 4 5 7 7 7 8 7 7 7 6 6 6 5 6 6 6 6 5 6 7 7 6 8 8 8 7
5 4 3 1 6 6 4 4 4 3 3 4 5 7 6 6 4 3 4 5 6 7 8 8 8 8 7 6 6 6 5 6 6 6 6 6 6 6 7 7 8 8 8 8
5 4 4 7 4 4 6 7 7 5 5 4 4 9 6 5 4 3 5 6 7 7 7 7 8 8 8 7 6 6 5 6 6 6 6 6 6 6 6 8 8 7 7 7
5 4 1 4 2 1 3 4 5 4 3 5 6 9 4 3 5 5 6 7 8 8 8 8 8 8 8 8 7 6 6 6 6 6 6 6 6 6 7 7 7 7 7 7
3 5 7 9 6 4 5 6 6 6 6 8 12 15 13 12 11 9 8 8 8 8 8 8 8 8 8 8 8 7 7 6 6 5 5 6 6 7 7 7 6 6 6 7
4 5 7 9 7 6 9 11 10 12 12 13 14 16 18 14 12 10 8 8 8 9 9 8 8 7 7 8 8 7 7 6 6 6 6 7 7 7 6 6 6 6 6 7
4 4 3 6 7 9 12 14 15 16 14 16 18 21 17 11 7 7 8 8 9 9 9 8 7 7 7 8 8 8 7 7 6 6 6 6 7 7 6 6 6 6 6 6
5 5 3 5 4 4 11 13 15 11 10 11 15 15 8 7 7 7 7 7 8 9 8 8 7 7 8 7 7 7 7 7 6 6 7 7 7 7 7 7 6 6 6 6
7 6 4 3 1 10 9 6 8 10 12 12 11 10 8 9 7 6 7 7 8 8 8 7 6 7 7 6 7 6 6 6 6 7 7 8 7 7 7 6 6 6 6 6
10 8 5 4 6 10 8 6 7 8 9 9 11 10 8 5 5 6 5 5 7 8 7 6 6 5 5 6 7 6 6 6 6 7 8 8 8 8 8 7 6 6 5 5
8 8 7 6 6 8 8 4 4 3 6 6 6 6 5 1 4 6 5 5 6 7 6 5 5 5 5 6 6 6 7 7 7 8 8 8 8 7 7 7 7 5 5 5
7 7 11 11 9 9 8 4 5 5 7 3 4 5 5 5 7 7 7 7 6 6 6 5 4 5 6 6 5 6 7 7 8 8 8 8 8 7 7 6 6 6 5 4
10 8 9 8 9 11 6 7 8 8 3 4 4 5 6 7 7 7 7 7 6 5 5 5 4 6 6 5 5 6 7 7 8 8 8 8 8 7 6 5 5 5 5 5
9 10 7 10 10 5 6 8 6 4 5 5 5 6 6 7 7 7 6 6 6 5 5 5 5 6 6 5 4 6 7 7 7 7 7 8 7 6 5 5 5 5 4 4
5 4 5 7 9 8 7 6 6 5 6 6 6 6 5 7 7 7 6 6 6 5 5 5 5 6 7 6 5 6 6 6 6 7 7 7 6 6 6 5 4 4 4 4
7 6 6 8 9 7 8 8 8 6 5 5 5 5 5 6 6 6 6 6 5 6 5 5 5 7 8 7 6 6 6 6 6 7 7 6 6 6 6 5 4 4 4 4
7 8 9 11 8 7 7 5 4 5 5 5 5 5 4 4 6 6 6 5 5 5 5 5 6 7 7 6 7 6 5 5 6 6 6 5 5 5 5 5 5 6 6 8
Wind_Direction
114 138 214 216 209 218 231 252 270 271 277 286 268 275 283 285 281 276 274 273 269 266 275 281 273 272 278 279 273 267 256 239 213 207 208 214 222 224 224 224 222 218 217 213
83 238 232 217 216 226 239 263 273 284 282 280 282 281 280 275 261 249 256 264 264 280 298 299 292 290 281 269 263 258 253 243 222 217 216 216 223 230 230 229 225 220 219 216
203 234 205 196 218 224 238 235 250 272 307 300 308 298 288 286 285 274 265 263 265 265 271 288 291 285 287 277 265 260 251 246 235 224 221 224 222 235 232 231 228 223 219 218
232 244 211 220 229 204 255 234 238 266 304 297 360 300 285 286 301 286 279 284 275 271 269 280 291 300 292 276 275 269 262 251 242 224 213 213 220 230 233 232 233 229 222 221
240 211 199 227 234 200 231 244 243 257 250 281 259 240 283 301 281 281 281 285 281 272 265 274 281 281 285 282 285 280 276 266 250 229 219 220 229 235 241 239 237 234 226 222
245 243 214 216 230 202 213 4 348 25 122 265 235 202 280 262 248 285 298 306 297 288 284 291 301 311 312 311 304 294 285 273 259 239 227 224 234 243 246 242 239 238 232 226
287 267 233 180 151 85 99 75 351 335 318 254 230 221 253 258 249 256 283 302 310 304 305 312 318 320 317 317 311 306 300 288 275 252 242 236 237 237 238 243 241 242 239 232
236 272 224 191 189 182 183 159 181 236 254 288 289 242 255 270 276 279 289 303 314 313 314 312 305 300 302 308 308 306 302 295 289 267 256 250 246 241 242 244 244 243 243 239
197 249 281 215 198 156 159 197 178 168 251 271 266 279 298 296 320 338 345 346 330 322 321 316 315 308 304 307 304 300 297 295 294 283 271 263 256 250 250 251 247 248 249 250
169 237 276 300 92 215 176 158 128 170 233 262 279 268 251 280 293 320 342 334 326 328 329 327 323 317 308 303 301 305 301 296 295 290 278 275 265 256 256 260 257 253 253 252
159 195 276 274 199 195 159 168 171 181 197 210 270 268 228 223 246 278 298 308 316 325 323 321 319 315 311 311 311 308 305 303 301 298 292 286 280 274 268 263 259 258 258 253
169 165 237 248 244 206 189 191 168 188 233 214 241 270 260 231 251 260 292 308 319 322 318 315 314 317 319 316 310 304 302 300 294 295 294 290 286 281 277 272 268 265 264 260
158 157 225 318 329 149 204 205 192 184 193 213 230 264 285 291 294 292 298 308 313 313 314 316 320 323 323 322 315 307 303 298 296 299 299 298 295 289 285 281 276 273 270 268
152 179 201 216 222 200 228 228 203 195 226 240 237 259 279 286 290 295 295 294 298 297 302 309 314 318 320 320 318 312 310 306 306 305 303 299 297 293 291 287 284 280 277 275
153 220 233 248 251 242 242 243 224 223 227 239 255 259 268 274 279 281 281 287 295 299 303 306 307 309 315 318 320 319 316 316 314 311 308 304 304 303 302 298 295 293 291 285
169 213 220 259 248 248 259 251 243 241 239 243 258 266 268 273 271 269 272 279 287 292 295 299 302 304 307 310 314 316 318 317 315 310 305 306 309 309 306 300 297 296 291 290
182 176 200 256 255 288 261 237 230 226 220 220 243 255 269 272 268 264 268 277 282 287 291 294 295 293 297 304 307 309 310 314 317 315 315 314 312 311 305 302 300 296 293 294
186 185 206 246 199 246 249 210 211 229 245 232 241 256 259 261 270 265 260 267 278 282 286 289 293 298 303 308 310 309 313 316 317 318 320 321 318 315 310 305 297 292 291 289
197 188 197 204 237 269 280 242 198 210 254 235 236 254 264 277 307 286 265 259 263 273 278 278 284 293 305 313 315 318 319 321 323 324 324 322 320 317 315 312 304 300 297 292
194 194 205 208 226 247 250 230 178 146 265 244 218 238 254 286 298 283 289 291 285 287 289 290 301 307 309 311 318 320 318 322 322 319 317 315 313 312 312 310 308 309 303 298
174 198 216 225 237 256 248 207 135 189 243 230 199 215 219 219 240 266 289 292 287 289 293 301 308 309 308 314 323 317 317 315 315 317 316 315 315 314 310 311 312 312 312 314
183 189 202 204 227 248 208 151 187 221 218 208 221 226 236 247 264 278 286 289 294 298 299 304 308 305 307 313 317 311 309 312 318 320 319 318 317 318 319 314 314 317 321 323
204 199 194 203 223 241 189 201 220 207 216 226 230 241 245 258 271 281 286 287 290 292 297 304 303 304 307 311 309 302 308 318 320 321 320 319 318 319 317 313 315 319 321 322
237 207 207 240 255 253 249 254 258 239 236 244 244 249 249 259 272 280 285 288 292 295 298 304 307 305 307 313 311 302 310 318 318 318 319 320 320 323 325 322 320 320 320 321
216 191 212 244 260 277 265 245 246 250 252 260 264 253 251 261 271 275 282 285 291 296 298 301 301 300 302 311 313 315 321 325 323 320 318 321 325 324 327 330 326 320 314 315
202 200 212 240 232 221 242 238 227 234 251 257 266 277 273 255 264 274 278 281 286 291 296 300 299 300 303 310 312 317 321 322 320 319 319 319 322 322 326 330 333 335 332 335
Height
1471 1475 1476 1474 1473 1474 1475 1476 1475 1469 1463 1463 1458 1452 1443 1440 1439 1437 1435 1435 1435 1434 1435 1435 1435 1435 1435 1435 1435 1435 1435 1436 1437 1437 1438 1439 1440 1441 1442 1444 1445 1446 1448 1449
1474 1474 1468 1468 1470 1472 1474 1475 1473 1466 1461 1460 1456 1449 1440 1436 1435 1434 1433 1432 1432 1432 1431 1432 1432 1432 1432 1432 1432 1432 1432 1433 1432 1433 1434 1435 1435 1436 1437 1438 1439 1441 1442 1443
1470 1467 1465 1467 1469 1471 1471 1473 1470 1467 1461 1458 1457 1448 1440 1434 1432 1431 1430 1430 1430 1430 1429 1429 1429 1429 1429 1428 1429 1429 1429 1429 1429 1429 1430 1430 1431 1431 1432 1432 1433 1434 1435 1436
1467 1464 1464 1465 1466 1467 1469 1464 1464 1464 1466 1465 1461 1459 1443 1435 1432 1429 1428 1427 1427 1427 1427 1427 1427 1426 1426 1426 1426 1426 1425 1425 1425 1425 1425 1425 1424 1424 1424 1426 1426 1428 1429 1430
1464 1462 1462 1463 1462 1462 1462 1460 1461 1462 1464 1466 1463 1464 1447 1437 1433 1429 1427 1426 1425 1425 1425 1425 1425 1425 1424 1424 1423 1423 1422 1422 1421 1421 1420 1420 1420 1420 1420 1420 1421 1421 1422 1423
1461 1459 1459 1458 1458 1459 1460 1461 1463 1465 1467 1467 1460 1464 1450 1439 1431 1428 1426 1424 1423 1423 1423 1423 1423 1422 1422 1421 1421 1420 1419 1418 1417 1416 1415 1415 1415 1414 1414 1414 1414 1414 1415 1415
1461 1458 1456 1456 1458 1459 1461 1467 1473 1472 1472 1466 1457 1459 1447 1431 1428 1427 1425 1423 1422 1422 1421 1420 1419 1419 1418 1418 1417 1416 1414 1413 1412 1411 1410 1410 1409 1409 1408 1408 1407 1407 1407 1408
1464 1462 1455 1454 1455 1458 1460 1464 1472 1474 1472 1466 1458 1454 1439 1427 1425 1424 1423 1422 1421 1420 1419 1418 1417 1416 1415 1414 1413 1412 1410 1409 1407 1406 1405 1405 1404 1403 1403 1402 1401 1401 1400 1400
1462 1461 1453 1452 1452 1455 1460 1462 1463 1470 1472 1471 1459 1449 1437 1425 1424 1423 1422 1421 1420 1419 1418 1416 1415 1414 1412 1411 1409 1408 1406 1404 1403 1402 1400 1399 1398 1398 1397 1396 1395 1394 1394 1394
1455 1460 1454 1452 1452 1453 1455 1459 1467 1469 1470 1468 1459 1452 1441 1428 1426 1424 1423 1421 1420 1418 1416 1414 1413 1411 1410 1408 1406 1404 1402 1400 1398 1397 1395 1394 1393 1392 1391 1390 1389 1388 1387 1387
1453 1458 1456 1454 1454 1454 1457 1459 1460 1466 1467 1469 1462 1446 1428 1425 1423 1423 1422 1420 1419 1417 1415 1413 1411 1409 1406 1404 1402 1399 1397 1395 1393 1392 1390 1389 1387 1386 1385 1384 1383 1381 1380 1380
1450 1456 1459 1454 1449 1449 1450 1453 1457 1465 1466 1467 1464 1444 1421 1421 1420 1420 1420 1418 1417 1415 1413 1411 1408 1405 1402 1399 1397 1395 1393 1391 1389 1387 1385 1383 1381 1380 1378 1377 1376 1374 1373 1373
1448 1454 1458 1455 1454 1452 1451 1451 1452 1456 1460 1461 1458 1438 1420 1419 1418 1418 1417 1416 1414 1413 1411 1408 1406 1403 1399 1396 1394 1391 1389 1386 1384 1382 1380 1378 1376 1374 1372 1370 1369 1368 1366 1365
1444 1450 1452 1451 1447 1449 1450 1449 1451 1454 1455 1453 1445 1431 1421 1418 1417 1416 1415 1414 1412 1410 1408 1405 1402 1399 1396 1393 1390 1388 1385 1383 1381 1378 1375 1372 1370 1368 1366 1364 1362 1361 1360 1359
1442 1446 1446 1444 1443 1444 1443 1443 1445 1446 1443 1442 1430 1426 1417 1415 1415 1413 1412 1410 1409 1406 1404 1402 1399 1396 1394 1391 1387 1384 1381 1379 1376 1373 1370 1368 1365 1363 1360 1358 1357 1355 1354 1353
1440 1444 1445 1444 1441 1441 1439 1435 1435 1434 1433 1431 1426 1419 1411 1411 1411 1410 1409 1408 1405 1403 1401 1398 1396 1394 1391 1388 1385 1381 1378 1375 1372 1369 1366 1363 1361 1358 1355 1353 1351 1350 1348 1346
1439 1442 1444 1442 1439 1439 1435 1424 1423 1423 1420 1421 1419 1411 1408 1409 1408 1407 1405 1404 1402 1400 1397 1395 1393 1391 1388 1385 1382 1378 1375 1372 1368 1365 1362 1358 1356 1353 1351 1349 1346 1344 1342 1340
1434 1437 1440 1440 1441 1439 1418 1412 1413 1414 1411 1411 1409 1406 1406 1405 1403 1403 1402 1400 1398 1396 1394 1392 1390 1387 1385 1382 1379 1375 1372 1368 1365 1361 1358 1355 1352 1349 1346 1344 1341 1339 1337 1335
1425 1430 1434 1437 1437 1427 1416 1409 1409 1411 1408 1403 1403 1402 1402 1401 1401 1399 1398 1397 1395 1393 1391 1388 1386 1384 1381 1378 1375 1371 1368 1365 1361 1358 1354 1352 1349 1345 1342 1339 1337 1334 1332 1330
1422 1424 1429 1430 1431 1424 1409 1402 1401 1406 1407 1398 1398 1398 1399 1399 1402 1397 1394 1392 1391 1389 1387 1384 1382 1380 1377 1374 1371 1368 1364 1361 1358 1354 1351 1348 1346 1342 1339 1335 1332 1330 1328 1326
1421 1422 1422 1421 1421 1411 1401 1399 1402 1409 1401 1395 1394 1395 1395 1396 1395 1392 1390 1388 1387 1385 1383 1380 1378 1375 1373 1370 1367 1364 1360 1357 1354 1351 1348 1345 1341 1338 1335 1332 1329 1326 1324 1321
1411 1415 1416 1416 1415 1407 1394 1397 1399 1394 1390 1391 1390 1391 1391 1390 1389 1387 1386 1384 1382 1380 1378 1376 1374 1371 1369 1366 1363 1360 1356 1353 1350 1347 1344 1340 1337 1334 1331 1329 1326 1323 1320 1317
1402 1400 1401 1401 1396 1389 1388 1388 1387 1387 1387 1387 1387 1387 1387 1386 1384 1383 1381 1380 1378 1376 1374 1372 1370 1367 1365 1362 1360 1356 1353 1349 1346 1343 1340 1337 1334 1331 1328 1325 1323 1320 1317 1315
1396 1394 1395 1395 1388 1385 1384 1384 1384 1384 1384 1383 1383 1383 1382 1381 1380 1378 1377 1375 1373 1372 1370 1368 1365 1362 1360 1358 1355 1352 1349 1346 1342 1339 1336 1333 1330 1327 1324 1322 1320 1318 1315 1313
1388 1390 1390 1388 1383 1382 1379 1379 1379 1380 1380 1379 1379 1378 1377 1376 1375 1374 1372 1370 1369 1367 1365 1363 1361 1358 1356 1353 1351 1348 1345 1342 1338 1335 1332 1330 1327 1324 1321 1319 1318 1315 1313 1312
1381 1382 1384 1379 1376 1377 1374 1374 1375 1375 1375 1374 1374 1373 1372 1372 1370 1369 1367 1366 1364 1363 1361 1358 1356 1354 1351 1349 1346 1344 1341 1338 1335 1332 1329 1327 1324 1322 1319 1316 1314 1313 1312 1309